Wind_Speed
99 101 102 105 109 113 116 124 119 121 125 128 131 130 128 124 120 113 111 105 103 101 97 95 90 85 81 77 73 72 68 65 61 59 56 57 57 54
102 105 112 114 121 124 128 126 127 129 128 133 136 132 129 125 119 112 108 106 105 102 97 90 86 83 79 77 72 69 68 64 59 58 57 58 57 54
116 119 121 127 131 132 132 131 133 133 134 136 132 126 121 113 110 108 105 103 100 97 91 86 82 79 77 75 71 67 65 62 59 58 59 59 56 53
127 133 133 132 137 137 138 138 140 139 136 129 118 116 111 109 107 103 100 98 94 89 86 83 80 78 75 73 70 68 65 63 62 62 59 56 55 49
138 139 141 142 141 143 146 146 142 137 128 123 118 114 109 105 102 98 95 91 87 84 82 80 78 74 73 70 68 66 66 64 62 61 60 55 49 44
143 142 144 145 150 152 148 143 138 129 124 119 114 108 104 99 95 91 87 84 81 79 77 76 74 70 68 67 66 65 64 63 62 59 57 52 46 40
148 150 151 153 152 148 144 135 127 125 120 111 106 99 95 91 88 84 82 80 78 75 74 72 70 68 67 66 65 62 61 60 57 54 53 49 44 39
150 154 154 153 148 139 131 128 124 116 109 101 96 93 90 86 83 80 79 77 74 72 71 69 68 66 64 63 62 61 58 57 54 52 49 47 41 38
148 150 146 139 134 130 124 117 108 103 97 95 92 90 88 84 81 78 76 74 71 68 65 62 61 59 59 57 57 52 52 52 49 47 45 41 39 38
141 138 137 133 125 113 107 103 98 95 92 92 91 88 85 80 77 74 72 68 63 59 54 50 48 47 46 46 47 47 46 44 42 42 41 39 39 39
135 132 121 113 106 101 98 97 95 93 91 89 85 83 80 76 73 71 65 59 55 48 46 44 41 40 39 39 38 37 38 38 39 40 40 39 40 40
120 111 104 100 98 97 95 94 92 89 86 83 81 77 75 71 67 63 60 54 48 44 42 40 38 36 35 34 35 34 34 36 38 39 40 39 41 41
109 105 100 97 94 94 91 89 86 84 82 77 74 71 69 65 60 58 55 49 43 41 38 35 33 30 30 30 30 31 34 36 37 38 39 40 41 42
100 96 94 92 89 87 84 82 81 77 74 71 69 66 62 60 56 52 48 44 42 39 34 31 29 27 26 26 28 30 32 35 36 38 39 40 41 43
92 90 89 86 82 80 78 75 72 70 67 65 62 59 56 53 50 47 44 42 41 37 34 31 29 27 27 28 29 32 34 35 36 40 42 41 42 44
85 83 78 76 75 72 70 67 65 63 61 59 57 54 51 49 47 46 44 42 40 37 35 33 31 30 30 30 30 31 33 38 39 40 40 43 46 47
76 74 72 70 67 67 65 63 60 58 57 56 53 52 51 50 49 47 46 44 41 39 38 36 36 35 35 33 33 35 36 38 40 43 45 46 47 49
68 65 65 65 63 62 59 57 56 55 54 53 53 51 50 50 49 48 47 46 45 42 42 40 38 38 40 40 39 39 41 43 44 46 47 48 49 50
62 62 61 60 58 56 55 55 54 54 53 51 50 49 48 48 48 47 47 47 46 46 45 47 45 43 41 40 40 43 46 48 50 52 53 52 51 56
60 59 57 55 55 54 53 53 53 52 52 50 48 48 47 45 44 43 43 44 44 45 47 49 51 49 47 50 52 53 53 52 51 54 55 54 53 53
58 56 54 53 54 54 53 52 52 52 50 48 46 45 44 43 42 42 42 43 44 46 47 49 50 51 54 57 61 61 58 57 56 56 56 56 55 53
54 55 55 53 53 53 53 52 52 50 49 48 46 45 44 44 45 45 45 46 48 49 51 50 52 52 55 56 58 59 58 57 56 55 57 56 56 57
55 54 55 55 55 54 54 53 53 52 51 50 48 47 47 47 48 49 50 51 52 54 55 56 56 57 57 58 59 60 59 58 56 57 60 59 59 59
Wind_Direction
271 275 281 283 283 288 290 292 293 292 294 297 297 297 296 296 295 296 296 298 299 300 300 299 299 300 299 298 297 298 297 296 297 297 298 300 303 305
272 274 277 278 281 284 287 290 291 292 293 295 295 295 295 295 296 298 297 298 298 298 299 298 297 296 295 295 296 295 295 294 294 295 296 299 299 301
271 273 275 277 280 283 285 288 291 291 293 294 293 292 293 294 295 296 296 296 297 297 297 296 295 294 293 292 293 291 291 292 293 294 294 297 297 296
273 275 277 280 282 284 286 287 290 291 293 294 293 295 296 296 297 295 297 297 296 295 294 293 292 291 290 289 289 289 288 290 291 290 291 291 291 289
275 276 279 280 281 284 286 289 290 292 292 295 296 296 296 295 295 295 294 294 294 293 292 290 290 290 288 287 286 286 286 285 286 287 287 288 286 285
275 276 278 280 282 284 286 288 290 292 294 295 296 294 294 294 294 294 294 293 292 291 291 291 289 287 285 284 281 279 280 280 281 281 282 281 279 277
274 275 279 281 283 284 286 289 293 294 294 294 294 292 292 293 293 293 292 292 291 291 289 288 286 283 282 280 279 277 275 274 275 274 275 274 274 269
276 276 278 279 283 286 289 292 292 291 291 292 291 292 293 294 294 293 291 291 290 289 288 286 284 283 280 276 274 272 272 271 270 269 268 269 265 257
275 275 279 282 285 287 288 290 289 290 290 291 292 292 293 294 294 295 293 293 291 291 289 287 284 280 277 274 274 271 266 264 264 264 260 260 254 245
275 278 280 283 285 286 285 287 288 289 290 289 291 292 293 295 296 295 295 296 295 294 292 289 284 281 278 273 269 267 263 261 258 254 254 252 245 239
277 278 281 282 282 282 284 284 286 286 287 288 289 291 294 295 296 296 297 297 299 296 294 291 287 282 276 273 268 261 258 254 251 248 249 246 239 237
278 278 278 280 281 281 283 284 283 284 285 287 290 292 293 294 295 295 296 298 297 297 296 292 288 280 274 268 263 257 249 247 247 245 244 241 237 238
275 277 279 280 280 280 281 282 282 283 286 287 289 289 290 292 293 294 293 294 294 295 294 291 287 283 276 266 256 250 247 245 242 241 240 239 242 242
274 275 275 277 278 279 280 280 282 284 285 286 287 287 289 290 290 288 287 288 290 292 290 289 284 280 270 262 255 250 244 241 242 241 240 245 244 246
271 273 274 276 277 278 280 281 282 284 285 286 285 286 287 286 285 283 282 282 286 289 287 284 280 273 264 258 253 246 246 246 247 246 246 248 247 249
270 273 275 276 277 278 279 281 283 284 284 284 285 286 285 284 282 279 277 278 278 280 280 278 276 275 268 262 256 254 255 255 254 251 251 249 248 252
272 274 276 276 277 279 281 281 281 282 282 282 283 283 283 282 281 278 276 275 275 271 269 269 271 269 267 263 261 261 259 258 254 253 252 253 256 256
273 274 275 277 278 279 279 279 280 280 281 281 281 281 281 279 279 277 275 274 272 271 264 263 265 265 265 265 265 266 263 259 258 258 259 257 256 260
271 273 275 276 277 277 278 279 280 280 280 281 281 279 278 276 275 275 273 271 270 269 265 263 262 262 263 260 262 262 262 263 264 264 264 262 261 261
272 274 275 275 276 276 277 278 279 279 279 280 279 278 278 276 275 274 272 270 269 267 268 266 265 265 263 259 261 265 268 268 269 266 266 266 265 263
272 271 272 273 274 275 275 276 277 278 278 277 277 277 277 277 275 274 272 271 269 268 267 267 267 265 263 262 263 265 265 267 268 268 267 265 265 263
269 271 271 271 272 273 274 275 276 275 276 277 276 275 276 276 277 276 275 273 272 272 270 269 267 266 265 264 264 266 265 264 263 263 264 264 263 262
268 268 269 269 270 271 272 273 274 275 275 277 278 278 278 278 280 279 278 276 275 274 272 271 269 268 267 267 267 266 265 265 263 262 262 263 263 263
Height
10680 10677 10674 10670 10669 10664 10660 10659 10657 10655 10650 10646 10632 10624 10616 10611 10608 10604 10597 10591 10583 10579 10576 10570 10565 10561 10557 10553 10550 10547 10543 10541 10537 10534 10531 10528 10525 10523
10663 10661 10658 10654 10651 10648 10644 10641 10636 10634 10631 10623 10613 10606 10598 10588 10585 10579 10574 10567 10562 10557 10555 10551 10545 10541 10538 10534 10533 10530 10526 10524 10522 10520 10516 10514 10510 10508
10642 10639 10636 10634 10631 10627 10623 10619 10618 10613 10609 10603 10593 10585 10577 10567 10563 10557 10552 10546 10540 10535 10532 10528 10525 10522 10519 10516 10515 10511 10508 10506 10506 10504 10502 10500 10497 10494
10619 10614 10611 10611 10608 10603 10601 10600 10595 10591 10587 10579 10568 10562 10554 10546 10539 10534 10528 10523 10518 10514 10510 10507 10505 10504 10500 10497 10496 10494 10492 10490 10489 10488 10487 10485 10484 10481
10595 10591 10589 10586 10582 10580 10578 10578 10572 10568 10561 10553 10543 10536 10531 10524 10519 10513 10508 10502 10497 10493 10489 10486 10484 10484 10480 10478 10477 10476 10475 10473 10472 10472 10470 10471 10469 10468
10573 10569 10567 10564 10559 10558 10557 10554 10550 10543 10537 10528 10520 10513 10508 10503 10497 10492 10487 10481 10477 10473 10469 10466 10464 10463 10460 10459 10458 10458 10457 10457 10455 10455 10455 10455 10455 10455
10550 10548 10547 10543 10538 10539 10535 10531 10524 10517 10510 10504 10499 10492 10487 10482 10476 10471 10467 10461 10456 10453 10449 10446 10444 10442 10439 10438 10438 10439 10439 10438 10440 10439 10440 10440 10441 10442
10534 10525 10525 10522 10522 10519 10513 10508 10501 10494 10488 10483 10476 10471 10467 10462 10456 10451 10446 10441 10436 10432 10429 10425 10422 10421 10419 10418 10418 10418 10420 10420 10421 10424 10425 10426 10427 10429
10514 10507 10504 10504 10502 10496 10490 10484 10479 10473 10469 10464 10457 10451 10446 10442 10437 10431 10426 10421 10416 10412 10407 10404 10401 10399 10397 10398 10397 10400 10401 10402 10404 10407 10409 10412 10415 10417
10492 10490 10487 10482 10479 10473 10469 10463 10459 10454 10449 10442 10438 10433 10428 10423 10417 10411 10406 10402 10397 10392 10387 10385 10382 10381 10379 10379 10380 10381 10384 10387 10390 10393 10396 10399 10402 10405
10470 10468 10465 10459 10456 10453 10449 10443 10440 10436 10430 10425 10420 10415 10410 10405 10400 10394 10390 10385 10380 10376 10373 10370 10367 10367 10366 10365 10366 10367 10370 10373 10376 10380 10384 10387 10390 10394
10448 10446 10441 10438 10436 10432 10428 10424 10421 10417 10412 10406 10402 10397 10392 10388 10384 10378 10374 10371 10367 10364 10361 10358 10355 10354 10354 10354 10354 10355 10358 10362 10365 10369 10372 10376 10379 10383
10424 10423 10419 10417 10415 10412 10409 10405 10401 10397 10392 10389 10384 10379 10375 10371 10368 10364 10360 10358 10356 10353 10350 10347 10345 10344 10343 10344 10345 10347 10350 10352 10355 10358 10362 10365 10369 10372
10403 10401 10398 10396 10394 10392 10389 10384 10380 10377 10373 10370 10366 10362 10359 10356 10353 10350 10348 10346 10344 10343 10341 10338 10336 10336 10336 10337 10338 10340 10342 10344 10346 10349 10352 10356 10359 10361
10381 10380 10379 10378 10375 10371 10367 10364 10362 10359 10355 10351 10347 10345 10343 10340 10338 10336 10336 10335 10333 10332 10331 10330 10328 10328 10329 10330 10331 10332 10334 10336 10339 10341 10343 10346 10349 10350
10361 10361 10360 10357 10354 10351 10348 10346 10343 10340 10337 10333 10331 10330 10328 10326 10325 10323 10323 10323 10323 10322 10321 10321 10320 10320 10321 10321 10322 10323 10325 10327 10328 10330 10332 10334 10336 10338
10343 10342 10340 10337 10335 10333 10330 10328 10326 10323 10321 10318 10316 10315 10314 10313 10312 10311 10310 10311 10311 10311 10310 10310 10311 10310 10310 10312 10312 10313 10314 10315 10317 10318 10320 10322 10324 10325
10324 10323 10321 10320 10318 10315 10313 10311 10309 10307 10306 10304 10302 10301 10300 10299 10298 10297 10297 10297 10297 10298 10299 10298 10299 10299 10300 10300 10301 10302 10302 10304 10304 10306 10307 10309 10310 10310
10306 10306 10304 10302 10300 10298 10297 10295 10294 10292 10291 10290 10289 10287 10285 10284 10283 10283 10282 10282 10282 10283 10283 10283 10284 10286 10287 10289 10290 10287 10287 10289 10292 10292 10291 10293 10295 10295
10287 10287 10286 10284 10283 10282 10281 10280 10278 10277 10276 10276 10274 10272 10271 10270 10269 10268 10268 10268 10268 10269 10268 10268 10269 10273 10275 10273 10272 10272 10274 10276 10276 10274 10274 10275 10278 10279
10269 10269 10269 10269 10268 10267 10266 10265 10264 10262 10261 10260 10259 10258 10257 10255 10255 10255 10254 10254 10254 10254 10254 10254 10254 10256 10256 10256 10255 10254 10258 10259 10259 10258 10258 10258 10260 10262
10253 10252 10252 10253 10253 10252 10251 10250 10249 10248 10246 10245 10245 10244 10244 10242 10241 10241 10241 10240 10240 10239 10238 10239 10239 10240 10238 10238 10236 10237 10238 10241 10242 10242 10240 10240 10242 10243
10235 10237 10236 10237 10237 10237 10236 10234 10233 10232 10232 10231 10230 10229 10228 10227 10226 10225 10224 10224 10223 10222 10221 10221 10222 10222 10222 10220 10219 10218 10219 10220 10225 10225 10222 10222 10223 10224